Regional Weather Roundup
Issued by NWS

Home | Current Version | Previous Version | Graphics & Text | Print | Product List | Glossary On
Versions: 1 2 3 4 5 6 7 8 9 10 11 12 13 14 15 16 17 18 19 20 21 22 23 24 25 26 27 28 29 30 31 32 33 34 35 36 37 38 39 40 41 42 43 44 45 46 47 48 49 50
000
ASUS43 KIND 231700
RWRIN

WEATHER ROUNDUP FOR INDIANA
NATIONAL WEATHER SERVICE INDIANAPOLIS IN
100 PM EDT WED AUG 23 2017

NOTE: "FAIR" INDICATES FEW OR NO CLOUDS BELOW 12,000 FEET WITH NO
SIGNIFICANT WEATHER AND/OR OBSTRUCTIONS TO VISIBILITY.

* - STATION DOES NOT REPORT WEATHER SUCH AS PRECIPITATION OR FOG.

+ - STATION NOT QUALITY CONTROLLED BY THE NATIONAL WEATHER SERVICE.
    USE DATA WITH CAUTION...ESPECIALLY DEWPOINT AND RELATIVE
    HUMIDITY OBSERVATIONS.

INZ001>003-010>013-019-020-231800-
NORTHWEST INDIANA

CITY           SKY/WX    TMP DP  RH WIND       PRES   REMARKS
MICHIGAN CITY+ MOSUNNY   72  55  56 NW10G17   30.06R
MONTICELLO +   SUNNY     73  53  48 NW8       30.06S

$$

LMZ046-743>745-231800-
SOUTHERN LAKE MICHIGAN

STATION/POSITION TIME  TEMP    WIND        PRES    WAVE
                       AIR SEA DIR/SP/G            HT
                 (UTC) (F)     (DEG/KT/KT) (MB)    (FT)
BURNS HARBOR     1640   69     340/  7/  9 1018.3R
MICHIGAN CITY    1630   68     300/ 11/ 13   N/A
5NW MICH CITY    1650   68 73  320/ 12/ 16   N/A     4

$$

INZ004-005-014>016-021>024-231800-
NORTH CENTRAL INDIANA

CITY           SKY/WX    TMP DP  RH WIND       PRES   REMARKS
GOSHEN         MOSUNNY   74  50  42 NW10G22   30.02S
SOUTH BEND     SUNNY     73  54  51 NW15      30.04R

$$

INZ006>009-017-018-025>027-231800-
NORTHEAST INDIANA

CITY           SKY/WX    TMP DP  RH WIND       PRES   REMARKS
FORT WAYNE     MOSUNNY   73  53  49 NW13      30.03S
KENDALLVILLE + PTSUNNY   69  54  58 NW7       30.02F

$$

INZ028-029-035-036-043>045-051>053-231800-
WEST CENTRAL INDIANA

CITY           SKY/WX    TMP DP  RH WIND       PRES   REMARKS
LAFAYETTE      SUNNY     74  54  49 NW8       30.06F
TERRE HAUTE    MOSUNNY   76  52  43 N9        30.08F

$$

INZ030>032-037>040-046>048-054>057-064-065-231800-
CENTRAL INDIANA

CITY           SKY/WX    TMP DP  RH WIND       PRES   REMARKS
ANDERSON       PTSUNNY   73  52  46 MISG      30.06
COLUMBUS       PTSUNNY   73  55  53 CALM      30.06F
INDIANAPOLIS   MOSUNNY   76  50  40 NW13      30.06S
-EAGLE CREEK   MOSUNNY   76  50  40 NW10G16   30.06S HAZE
KOKOMO +       MOSUNNY   73  54  51 W12       30.06F
MT COMFORT *+  PTSUNNY   73  50  43 NW6       30.07S
SHELBYVILLE    PTSUNNY   77  54  44 N7        30.05S

$$

INZ033-034-041-042-049-050-058-059-231800-
EAST CENTRAL INDIANA

CITY           SKY/WX    TMP DP  RH WIND       PRES   REMARKS
MUNCIE         PTSUNNY   76  52  43 NW10G17   30.05S
RICHMOND +     PTSUNNY   70  54  56 W10       30.06F HAZE

$$

INZ060-061-067>069-081>083-085>088-231800-
SOUTHWEST INDIANA

CITY           SKY/WX    TMP DP  RH WIND       PRES   REMARKS
EVANSVILLE     MOSUNNY   79  57  46 N10       30.07S
HUNTINGBURG +  PTSUNNY   77  60  55 VRB5      30.07R

$$

INZ062-063-066-070>080-084-089>092-231800-
SOUTH CENTRAL AND SOUTHEAST INDIANA

CITY           SKY/WX    TMP DP  RH WIND       PRES   REMARKS
BLOOMINGTON    MOSUNNY   76  53  44 N8        30.07S
MADISON *+     PTSUNNY   73  52  46 N5        30.08R
SEYMOUR +      PTSUNNY   77  54  44 N5        30.06S

$$





USA.gov is the U.S. government's official web portal to all federal, state and local government web resources and services.